Lid_Strength_Index
0 1 1 1 -0 -0 -1 -1 -1 3 3 2 2 2 2 2 2 3 4 2 1 -0 1 3 4 4 2 4 4 4 9 10 9 9 8 5 6 4 4 5 4 4 4 3 2
0 0 1 1 0 -0 -0 -1 -1 1 2 3 2 2 2 3 4 5 2 1 0 0 3 5 7 5 5 6 5 6 9 8 6 6 7 6 6 6 6 6 5 5 3 2 2
1 0 0 1 1 0 -0 -1 -1 -1 1 3 2 3 3 3 5 5 2 1 1 0 3 4 5 6 7 6 7 6 9 7 6 6 5 6 6 5 6 7 5 5 5 3 3
1 0 0 0 1 1 -0 -1 -1 -1 0 2 2 3 3 3 11 6 3 2 1 1 4 5 7 8 9 9 8 8 6 7 6 6 5 6 5 6 5 5 3 3 3 3 4
1 0 -0 -0 -1 0 0 -0 -1 -1 -1 3 3 2 3 6 6 4 3 2 3 4 5 7 8 9 11 9 8 9 8 6 6 6 5 5 6 6 6 4 3 3 3 4 3
0 -0 -1 -1 -1 -1 -1 -1 -1 -1 -1 0 3 2 5 10 4 3 3 3 4 4 5 5 7 7 10 10 9 9 7 7 6 6 6 7 6 6 5 4 4 4 4 3 3
-1 -1 -1 -1 -1 -1 -1 -1 -1 -1 -1 -1 1 3 6 8 3 3 3 4 4 4 6 5 5 7 8 10 9 9 10 7 7 7 7 6 8 8 5 4 5 5 4 3 3
-2 -2 -1 -1 -1 -1 -1 -1 -1 -1 -1 -1 -1 4 9 4 3 3 3 4 3 3 4 3 4 7 8 9 10 11 10 12 8 7 7 7 11 7 5 5 5 5 4 4 3
-2 -2 -1 -1 -1 -1 -1 -1 -1 -1 -1 -1 1 6 11 5 7 4 3 5 4 3 3 4 5 8 9 11 13 12 13 12 11 8 8 8 9 6 6 5 5 5 5 4 4
-2 -2 -1 -1 -1 -1 -1 -1 -1 -1 -0 1 2 9 9 10 8 6 3 3 4 5 6 6 7 10 10 11 17 15 14 13 12 11 9 9 9 8 7 6 6 5 5 4 4
-2 -1 -1 -1 -1 -1 -1 0 4 5 4 6 6 6 7 6 5 7 4 4 5 6 10 8 11 13 11 10 11 12 12 13 12 11 12 10 9 7 7 7 6 5 5 5 4
-1 -1 -1 -1 -1 -1 -1 3 3 3 8 4 4 4 4 5 9 8 3 7 7 10 8 10 13 10 9 10 11 11 13 13 12 12 13 12 12 10 8 7 7 6 5 5 4
-1 -1 -1 -1 -1 -0 1 2 -0 1 8 7 6 5 5 5 9 8 5 7 9 11 10 11 10 9 9 11 12 12 12 12 13 13 12 13 13 11 9 8 8 8 7 6 6
-1 -1 -2 -2 1 1 2 0 -1 0 12 11 8 6 5 5 8 5 3 7 8 11 10 11 10 10 10 11 11 14 12 12 14 14 15 12 16 11 9 10 9 9 8 7 6
-1 -2 -2 -1 1 3 1 -1 -0 2 19 9 8 3 4 7 7 7 4 7 10 11 10 12 11 11 11 11 10 11 11 12 13 14 14 14 15 13 10 12 11 9 9 8 7
-1 -2 -1 -0 -0 0 -1 -0 2 13 19 12 8 9 9 8 7 6 7 5 7 10 10 12 9 10 10 10 9 10 11 11 12 13 18 14 15 14 12 12 11 10 10 9 9
-1 -1 -1 -1 3 -1 0 3 13 17 10 13 12 10 10 11 10 9 10 10 12 14 15 12 12 10 9 11 10 11 13 17 18 18 18 15 15 14 12 11 11 11 10 10 9
-1 -1 -0 0 -0 -0 2 9 16 13 13 10 11 10 13 11 11 10 11 12 9 11 13 16 17 12 10 11 12 12 13 15 20 19 17 16 18 15 11 10 10 10 9 9 8
-1 -0 1 1 0 -0 6 13 14 13 12 12 11 13 13 12 11 11 12 12 10 9 13 14 14 10 9 9 10 13 15 13 16 18 18 16 15 12 11 11 10 10 9 9 8
1 2 2 1 1 2 10 12 12 10 11 11 14 12 15 14 13 13 13 13 11 9 8 10 15 10 9 8 9 11 11 16 14 19 21 19 17 17 13 12 11 10 9 8 8
2 6 1 1 0 6 12 11 11 9 9 11 12 13 13 14 13 14 14 13 11 10 8 9 11 13 10 12 12 12 13 12 13 14 18 20 17 12 12 11 11 10 9 8 7
3 9 1 1 8 9 11 11 9 10 8 10 10 11 12 13 14 14 14 12 10 10 11 11 11 15 13 9 8 10 12 12 15 16 15 16 17 11 10 10 9 9 8 7 7
6 5 1 3 11 11 10 10 9 9 9 10 11 10 10 12 14 13 12 10 10 10 11 10 13 17 16 12 10 11 10 10 11 12 15 17 15 10 9 9 8 8 7 6 6
5 10 7 6 7 9 10 11 11 8 9 8 10 9 10 12 11 13 13 10 9 10 10 9 12 14 16 15 12 13 11 10 10 15 14 13 12 10 9 8 7 6 6 6 5
4 10 10 10 9 9 9 10 11 11 8 8 10 10 12 14 13 13 12 11 10 9 9 10 14 12 13 12 12 12 12 11 12 11 14 12 11 9 8 7 7 6 6 6 6
6 8 8 10 9 8 9 11 11 11 10 11 11 10 10 13 12 13 13 13 12 10 11 10 13 12 14 12 12 13 11 11 11 11 11 11 11 7 6 6 7 7 7 7 6
5 5 5 10 9 8 10 10 10 9 9 8 9 10 11 11 9 9 9 10 10 11 12 12 12 13 15 12 12 15 12 11 10 9 10 12 9 7 7 8 8 7 7 7 7